EW7507 Weather Reports


Display with metric or nautical units.
time (UTC)temp
F
wind
direction
speed
MPH
gust
MPH
rain 1hr
in
rain 24hr
in
rain mn
in
humidity
%
barometer
mb
20220122061549 1 124 2.0 7.0 0.00 0.00 0.00 78 1019.4
20220122061048 1 106 4.0 7.0 0.00 0.00 0.00 78 1019.3
20220122060551 1 121 4.0 7.0 0.00 0.00 0.00 78 1019.3
20220122060048 1 134 3.0 7.0 0.00 0.00 0.00 79 1019.6
20220122055549 1 135 2.0 4.0 0.00 0.00 0.00 79 1019.7
20220122055048 1 135 2.0 4.0 0.00 0.00 0.00 79 1019.9
20220122054549 1 134 2.0 4.0 0.00 0.00 0.00 79 1019.9
20220122054047 1 134 2.0 3.0 0.00 0.00 0.00 78 1019.9
20220122053549 1 134 1.0 4.0 0.00 0.00 0.00 78 1019.9
20220122053047 1 133 1.0 5.0 0.00 0.00 0.00 78 1020.0
20220122052549 1 109 3.0 5.0 0.00 0.00 0.00 78 1019.7
20220122052049 1 87 3.0 4.0 0.00 0.00 0.00 78 1019.9
20220122051550 1 75 1.0 4.0 0.00 0.00 0.00 78 1020.1
20220122051047 1 55 2.0 4.0 0.00 0.00 0.00 77 1020.2
20220122050548 1 55 2.0 4.0 0.00 0.00 0.00 77 1020.0
20220122050046 2 358 2.0 4.0 0.00 0.00 0.00 77 1020.1
20220122045549 2 326 2.0 3.0 0.00 0.00 0.00 77 1020.3
20220122045046 2 326 1.0 2.0 0.00 0.00 0.00 77 1020.3
20220122044547 2 326 1.0 2.0 0.00 0.00 0.00 77 1020.4
20220122044048 2 326 0.0 2.0 0.00 0.00 0.00 77 1020.4
20220122043547 2 326 1.0 2.0 0.00 0.00 0.00 77 1020.4
20220122043046 2 326 0.0 2.0 0.00 0.00 0.00 77 1020.6
20220122042546 2 326 1.0 1.0 0.00 0.00 0.00 77 1020.7
20220122042048 2 326 0.0 1.0 0.00 0.00 0.00 77 1020.9
20220122041547 2 326 0.0 2.0 0.00 0.00 0.00 77 1020.8
20220122041045 2 326 0.0 3.0 0.00 0.00 0.00 77 1020.8
20220122040546 2 326 2.0 3.0 0.00 0.00 0.00 77 1020.9
20220122040046 2 326 2.0 4.0 0.00 0.00 0.00 77 1020.9
20220122035545 2 326 2.0 4.0 0.00 0.00 0.00 77 1021.2
20220122035047 3 324 2.0 3.0 0.00 0.00 0.00 78 1021.4
20220122034547 3 324 1.0 4.0 0.00 0.00 0.00 78 1021.4
20220122034045 3 324 3.0 5.0 0.00 0.00 0.00 78 1021.5
20220122033548 3 324 2.0 5.0 0.00 0.00 0.00 78 1021.6
20220122033045 3 302 1.0 3.0 0.00 0.00 0.00 78 1021.7
20220122032547 3 302 2.0 4.0 0.00 0.00 0.00 79 1021.8
20220122032044 3 298 1.0 4.0 0.00 0.00 0.00 79 1021.7
20220122031548 3 295 1.0 3.0 0.00 0.00 0.00 79 1021.7
20220122031043 3 295 1.0 3.0 0.00 0.00 0.00 79 1021.8
20220122030545 3 295 1.0 2.0 0.00 0.00 0.00 79 1021.7
20220122030044 3 295 0.0 1.0 0.00 0.00 0.00 79 1021.7
20220122025544 3 295 0.0 2.0 0.00 0.00 0.00 79 1021.9
20220122025044 3 295 1.0 2.0 0.00 0.00 0.00 79 1021.8
20220122024547 3 295 1.0 3.0 0.00 0.00 0.00 79 1021.8
20220122024043 3 295 2.0 3.0 0.00 0.00 0.00 79 1021.9
20220122023544 3 295 1.0 2.0 0.00 0.00 0.00 79 1021.9
20220122023045 4 295 2.0 2.0 0.00 0.00 0.00 78 1022.0
20220122022544 4 295 0.0 2.0 0.00 0.00 0.00 78 1022.2
20220122022042 4 295 0.0 3.0 0.00 0.00 0.00 78 1022.1
20220122021551 4 295 1.0 3.0 0.00 0.00 0.00 77 1022.1
20220122021042 4 295 1.0 3.0 0.00 0.00 0.00 77 1022.1
20220122020544 4 295 1.0 3.0 0.00 0.00 0.00 76 1022.1
20220122020041 4 295 1.0 3.0 0.00 0.00 0.00 76 1022.0
20220122015545 4 295 1.0 3.0 0.00 0.00 0.00 76 1021.9
20220122015041 4 295 2.0 3.0 0.00 0.00 0.00 76 1022.1
20220122014545 4 295 1.0 3.0 0.00 0.00 0.00 76 1022.0
20220122014041 5 295 1.0 3.0 0.00 0.00 0.00 77 1022.1
20220122013543 5 295 1.0 4.0 0.00 0.00 0.00 77 1022.1
20220122013041 5 295 3.0 4.0 0.00 0.00 0.00 77 1022.1
20220122012544 5 293 2.0 4.0 0.00 0.00 0.00 78 1022.1
20220122012040 5 300 3.0 4.0 0.00 0.00 0.00 78 1022.1
20220122011542 5 306 1.0 3.0 0.00 0.00 0.00 78 1021.9
20220122011042 6 306 1.0 3.0 0.00 0.00 0.00 78 1021.9
20220122010542 6 306 1.0 2.0 0.00 0.00 0.00 78 1021.9
20220122010042 6 306 0.0 2.0 0.00 0.00 0.00 79 1021.9
20220122005542 6 306 0.0 3.0 0.00 0.00 0.00 79 1021.7
20220122005040 6 306 1.0 4.0 0.00 0.00 0.00 78 1022.0
20220122004543 6 306 2.0 4.0 0.00 0.00 0.00 78 1021.9
20220122004039 6 312 2.0 5.0 0.00 0.00 0.00 78 1021.9
20220122003541 6 312 3.0 6.0 0.00 0.00 0.00 78 1022.1
20220122003040 6 341 2.0 6.0 0.00 0.00 0.00 78 1021.8
20220122002541 6 303 5.0 10.0 0.00 0.00 0.00 77 1021.9
20220122002040 7 317 3.0 10.0 0.00 0.00 0.00 77 1021.7
20220122001543 7 305 4.0 9.0 0.00 0.00 0.00 77 1021.7
20220122001040 7 329 4.0 10.0 0.00 0.00 0.00 77 1021.6
20220122000539 7 329 5.0 11.0 0.00 0.00 0.00 77 1021.5
20220122000039 8 312 4.0 15.0 0.00 0.00 0.00 76 1021.4
20220121235540 8 336 7.0 15.0 0.00 0.00 0.00 76 1021.2
20220121235039 8 313 5.0 13.0 0.00 0.00 0.00 76 1021.2
20220121234545 8 306 9.0 13.0 0.00 0.00 0.00 76 1021.2
20220121234040 8 303 5.0 11.0 0.00 0.00 0.00 76 1021.3
20220121233541 8 313 5.0 11.0 0.00 0.00 0.00 76 1021.3
20220121233039 8 309 6.0 13.0 0.00 0.00 0.00 75 1021.2
20220121232540 9 298 7.0 13.0 0.00 0.00 0.00 75 1021.0
20220121232038 9 296 8.0 13.0 0.00 0.00 0.00 75 1020.9
20220121231540 9 307 5.0 14.0 0.00 0.00 0.00 75 1020.8
20220121231038 9 336 9.0 14.0 0.00 0.00 0.00 74 1020.5
20220121230541 10 350 6.0 15.0 0.00 0.00 0.00 74 1020.5
20220121230038 10 313 8.0 15.0 0.00 0.00 0.00 74 1020.4
20220121225544 10 293 6.0 18.0 0.00 0.00 0.00 74 1020.3
20220121225037 10 310 11.0 18.0 0.00 0.00 0.00 74 1020.3
20220121224540 11 312 8.0 18.0 0.00 0.00 0.00 73 1020.3
20220121224037 11 326 9.0 16.0 0.00 0.00 0.00 73 1020.3
20220121223538 11 305 8.0 15.0 0.00 0.00 0.00 73 1020.2
20220121223037 11 266 7.0 16.0 0.00 0.00 0.00 73 1020.0
20220121222537 11 296 10.0 17.0 0.00 0.00 0.00 73 1020.0
20220121222038 12 292 9.0 20.0 0.00 0.00 0.00 72 1019.7
20220121221538 12 296 8.0 20.0 0.00 0.00 0.00 72 1019.6
20220121221038 12 247 6.0 13.0 0.00 0.00 0.00 71 1019.5
20220121220538 12 313 8.0 15.0 0.00 0.00 0.00 70 1019.4
20220121220038 12 324 8.0 15.0 0.00 0.00 0.00 70 1019.3
20220121215541 13 305 9.0 15.0 0.00 0.00 0.00 70 1019.2
20220121215038 13 334 9.0 18.0 0.00 0.00 0.00 69 1018.8
20220121214538 13 309 11.0 18.0 0.00 0.00 0.00 70 1018.9
20220121214037 13 312 8.0 16.0 0.00 0.00 0.00 69 1018.8
20220121213538 13 340 6.0 17.0 0.00 0.00 0.00 70 1018.7
20220121213038 13 299 8.0 21.0 0.00 0.00 0.00 69 1018.7
20220121212538 13 309 9.0 21.0 0.00 0.00 0.00 69 1018.7
20220121212035 13 258 9.0 18.0 0.00 0.00 0.00 69 1018.6
20220121211537 13 302 10.0 19.0 0.00 0.00 0.00 69 1018.6
20220121211035 13 317 10.0 19.0 0.00 0.00 0.00 69 1018.5
20220121210537 13 357 9.0 16.0 0.00 0.00 0.00 69 1018.4
20220121210035 13 331 11.0 18.0 0.00 0.00 0.00 69 1018.4
20220121205536 13 334 8.0 23.0 0.00 0.00 0.00 69 1018.4
20220121205034 13 305 11.0 23.0 0.00 0.00 0.00 68 1018.3
20220121204535 13 313 11.0 22.0 0.00 0.00 0.00 68 1018.2
20220121204035 13 319 12.0 22.0 0.00 0.00 0.00 68 1018.2
20220121203535 13 306 11.0 19.0 0.00 0.00 0.00 68 1018.0
20220121203033 13 350 11.0 21.0 0.00 0.00 0.00 68 1018.0
20220121202536 13 347 12.0 24.0 0.00 0.00 0.00 68 1017.9
20220121202034 13 299 13.0 24.0 0.00 0.00 0.00 68 1017.8
20220121201534 13 333 11.0 23.0 0.00 0.00 0.00 67 1017.6
20220121201033 13 313 12.0 21.0 0.00 0.00 0.00 67 1017.7
20220121200536 14 338 8.0 19.0 0.00 0.00 0.00 68 1017.6
20220121200035 14 302 13.0 21.0 0.00 0.00 0.00 68 1017.6
20220121195534 14 348 9.0 23.0 0.00 0.00 0.00 68 1017.5
20220121195032 14 333 12.0 23.0 0.00 0.00 0.00 69 1017.4
20220121194534 14 351 11.0 24.0 0.00 0.00 0.00 69 1017.3
20220121194033 14 324 10.0 24.0 0.00 0.00 0.00 69 1017.1
20220121193534 14 333 12.0 22.0 0.00 0.00 0.00 71 1017.0
20220121193034 14 312 9.0 19.0 0.00 0.00 0.00 72 1016.8
20220121192534 15 347 12.0 19.0 0.00 0.00 0.00 72 1016.7
20220121192034 15 17 8.0 17.0 0.00 0.00 0.00 75 1016.5
20220121191533 15 323 8.0 18.0 0.00 0.00 0.00 75 1016.3
20220121191033 15 306 10.0 20.0 0.00 0.00 0.00 75 1016.2
20220121190537 15 334 11.0 20.0 0.00 0.00 0.00 74 1016.2
20220121190031 16 0 11.0 18.0 0.00 0.00 0.00 73 1016.1
20220121185534 16 334 10.0 18.0 0.00 0.00 0.00 73 1016.1
20220121185031 16 340 11.0 17.0 0.00 0.00 0.00 73 1016.0
20220121184534 16 286 10.0 19.0 0.00 0.00 0.00 74 1015.9
20220121184031 16 313 9.0 19.0 0.00 0.00 0.00 74 1015.8
20220121183533 16 298 11.0 22.0 0.00 0.00 0.00 74 1015.8
20220121183030 16 313 12.0 23.0 0.00 0.00 0.00 74 1015.7
20220121182533 16 306 12.0 23.0 0.00 0.00 0.00 74 1015.5
20220121182031 16 331 12.0 21.0 0.00 0.00 0.00 74 1015.5
20220121181533 17 321 14.0 21.0 0.00 0.00 0.00 73 1015.4
20220121181031 17 307 7.0 23.0 0.00 0.00 0.00 74 1015.3
20220121180534 17 295 9.0 23.0 0.00 0.00 0.00 74 1015.1
20220121180035 17 321 10.0 26.0 0.00 0.00 0.00 74 1015.1
20220121175531 17 305 8.0 26.0 0.00 0.00 0.00 73 1015.0
20220121175028 17 310 12.0 22.0 0.00 0.00 0.00 74 1015.0
20220121174532 17 305 13.0 22.0 0.00 0.00 0.00 74 1014.9
20220121174028 17 323 9.0 19.0 0.00 0.00 0.00 74 1014.8
20220121173531 17 306 10.0 19.0 0.00 0.00 0.00 74 1014.5
20220121173028 17 266 11.0 21.0 0.00 0.00 0.00 74 1014.5
20220121172533 17 310 9.0 21.0 0.00 0.00 0.00 74 1014.4
20220121172029 17 310 10.0 22.0 0.00 0.00 0.00 74 1014.3
20220121171531 17 0 11.0 26.0 0.00 0.00 0.00 74 1013.9
20220121171030 17 319 13.0 26.0 0.00 0.00 0.00 74 1013.9
20220121170530 18 312 12.0 24.0 0.00 0.00 0.00 74 1013.7
20220121170029 18 344 12.0 21.0 0.00 0.00 0.00 74 1013.7
20220121165530 18 320 9.0 27.0 0.00 0.00 0.00 74 1013.4
20220121165028 18 269 15.0 30.0 0.00 0.00 0.00 73 1013.3
20220121164533 19 305 18.0 30.0 0.00 0.00 0.00 73 1013.1
20220121164028 20 296 16.0 26.0 0.00 0.00 0.00 75 1012.9
20220121163532 20 313 7.0 16.0 0.00 0.00 0.00 76 1012.5
20220121163029 20 336 7.0 16.0 0.00 0.00 0.00 76 1012.5
20220121162533 20 334 7.0 16.0 0.00 0.00 0.00 76 1012.3
20220121162028 20 290 8.0 16.0 0.00 0.00 0.00 75 1012.1
20220121161530 20 344 9.0 18.0 0.00 0.00 0.00 75 1012.0
20220121161028 20 347 9.0 18.0 0.00 0.00 0.00 75 1011.9
20220121160532 20 306 7.0 18.0 0.00 0.00 0.00 74 1011.7
20220121160027 20 4 11.0 21.0 0.00 0.00 0.00 74 1011.7
20220121155529 21 0 13.0 21.0 0.00 0.00 0.00 74 1011.6
20220121155028 21 336 11.0 17.0 0.00 0.00 0.00 75 1011.4
20220121154528 21 343 9.0 17.0 0.00 0.00 0.00 75 1011.3
20220121154027 21 323 6.0 21.0 0.00 0.00 0.00 75 1011.3
20220121153527 22 306 12.0 26.0 0.00 0.00 0.00 74 1011.1
20220121153026 22 0 14.0 26.0 0.00 0.00 0.00 74 1010.9
20220121152527 22 358 12.0 26.0 0.00 0.00 0.00 74 1010.7
20220121152026 22 300 11.0 26.0 0.00 0.00 0.00 73 1010.7
20220121151527 22 266 13.0 22.0 0.00 0.00 0.00 73 1010.6
20220121151027 22 320 12.0 31.0 0.00 0.00 0.00 74 1010.2
20220121150527 22 299 11.0 31.0 0.00 0.00 0.00 74 1010.2
20220121150026 22 0 15.0 26.0 0.00 0.00 0.00 74 1010.1
20220121145529 23 286 13.0 26.0 0.00 0.00 0.00 74 1009.8
20220121145025 23 307 12.0 24.0 0.00 0.00 0.00 74 1009.6
20220121144530 23 290 11.0 28.0 0.00 0.00 0.00 74 1009.5
20220121144025 23 310 13.0 28.0 0.00 0.00 0.00 74 1009.4
20220121143530 24 310 14.0 28.0 0.00 0.00 0.00 74 1009.4
20220121143024 24 292 14.0 31.0 0.00 0.00 0.00 74 1009.3
20220121142528 24 344 11.0 31.0 0.00 0.00 0.00 73 1009.0
20220121142025 25 353 12.0 32.0 0.00 0.00 0.00 74 1009.0
20220121141526 25 302 17.0 32.0 0.00 0.00 0.00 74 1008.8
20220121141024 26 288 15.0 30.0 0.00 0.00 0.00 74 1008.6
20220121140525 26 310 14.0 23.0 0.00 0.00 0.00 76 1008.3
20220121140024 26 319 12.0 22.0 0.00 0.00 0.00 77 1008.1
20220121135527 27 353 9.0 18.0 0.00 0.00 0.00 78 1007.9
20220121135026 27 307 9.0 22.0 0.00 0.00 0.00 77 1007.7
20220121134525 27 337 13.0 22.0 0.00 0.00 0.00 78 1007.4
20220121134024 27 319 8.0 17.0 0.00 0.00 0.00 78 1007.4
20220121133525 27 331 8.0 18.0 0.00 0.00 0.00 78 1007.3
20220121133023 28 317 6.0 27.0 0.00 0.00 0.00 78 1007.2
20220121132528 28 336 11.0 27.0 0.00 0.00 0.00 78 1007.0
20220121132023 28 347 12.0 22.0 0.00 0.00 0.00 78 1006.8
20220121131526 28 340 12.0 22.0 0.00 0.00 0.00 79 1006.8
20220121131024 28 305 7.0 22.0 0.00 0.00 0.00 80 1006.6
20220121130525 29 306 11.0 22.0 0.00 0.00 0.00 79 1006.6
20220121130023 29 329 9.0 19.0 0.00 0.00 0.00 80 1006.5
20220121125526 29 320 10.0 19.0 0.00 0.00 0.00 80 1006.2
20220121125022 30 306 9.0 16.0 0.00 0.00 0.00 80 1006.0
20220121124524 30 0 6.0 14.0 0.00 0.00 0.00 79 1005.9
20220121124025 30 312 7.0 19.0 0.00 0.00 0.00 79 1005.7
20220121123525 30 281 11.0 19.0 0.00 0.00 0.00 79 1005.6
20220121123023 31 313 10.0 20.0 0.00 0.00 0.00 79 1005.3
20220121122524 31 320 12.0 26.0 0.00 0.00 0.00 79 1005.2
20220121122023 31 300 13.0 26.0 0.00 0.00 0.00 82 1005.0
20220121121526 31 329 11.0 24.0 0.00 0.00 0.00 84 1004.9
20220121120525 32 326 14.0 23.0 0.00 0.00 0.00 85 1004.5
20220121120020 32 305 9.0 18.0 0.00 0.00 0.00 84 1004.1
20220121115525 32 288 10.0 28.0 0.00 0.00 0.00 84 1004.0
20220121115020 32 327 14.0 28.0 0.00 0.00 0.00 84 1003.8
20220121114525 32 305 10.0 19.0 0.00 0.00 0.00 84 1003.7
20220121114021 32 295 9.0 23.0 0.00 0.00 0.00 83 1003.4
20220121113524 33 344 13.0 24.0 0.00 0.00 0.00 83 1003.2
20220121113020 33 221 11.0 24.0 0.00 0.00 0.00 83 1003.2
20220121112524 33 307 12.0 22.0 0.00 0.00 0.00 84 1003.1
20220121112023 33 281 10.0 19.0 0.00 0.00 0.00 84 1002.9
20220121111522 33 321 11.0 20.0 0.00 0.00 0.00 84 1003.0
20220121111021 33 281 10.0 21.0 0.00 0.00 0.00 84 1002.9
20220121110523 33 296 12.0 27.0 0.00 0.00 0.00 85 1002.6
20220121110026 33 295 14.0 27.0 0.00 0.00 0.00 85 1002.6
20220121105524 33 302 9.0 23.0 0.00 0.00 0.00 86 1002.6
20220121105019 33 312 9.0 23.0 0.00 0.00 0.00 86 1002.6
20220121104524 33 320 9.0 23.0 0.00 0.00 0.00 87 1002.5
20220121104020 33 302 13.0 24.0 0.00 0.00 0.00 88 1002.4
20220121103525 33 293 12.0 24.0 0.00 0.00 0.00 88 1002.2
20220121103018 33 305 8.0 19.0 0.00 0.00 0.00 89 1001.9
20220121102524 33 275 13.0 20.0 0.00 0.00 0.00 90 1001.8
20220121102019 33 296 10.0 20.0 0.00 0.00 0.00 90 1001.7
20220121101523 33 279 10.0 17.0 0.00 0.00 0.00 90 1001.6
20220121101020 33 307 9.0 20.0 0.00 0.00 0.00 90 1001.6
20220121100526 33 286 9.0 20.0 0.00 0.00 0.00 90 1001.5
20220121100018 33 261 10.0 17.0 0.00 0.00 0.00 90 1001.4
20220121095525 33 333 7.0 21.0 0.00 0.00 0.00 89 1001.3
20220121095018 33 257 11.0 22.0 0.00 0.00 0.00 89 1001.2
20220121094528 33 305 7.0 22.0 0.00 0.00 0.00 88 1001.1
20220121094018 33 285 9.0 16.0 0.00 0.00 0.00 88 1001.1
20220121093523 33 282 6.0 16.0 0.00 0.00 0.00 88 1001.0
20220121093017 33 262 8.0 18.0 0.00 0.00 0.00 88 1000.8
20220121092525 33 295 8.0 18.0 0.00 0.00 0.00 88 1000.9
20220121092017 33 289 9.0 19.0 0.00 0.00 0.00 88 1000.7
20220121091522 33 303 8.0 19.0 0.00 0.00 0.00 88 1000.6
20220121091016 33 268 8.0 21.0 0.00 0.00 0.00 88 1000.5
20220121090522 33 303 11.0 21.0 0.00 0.00 0.00 88 1000.4
20220121090016 33 330 11.0 20.0 0.00 0.00 0.00 88 1000.3
20220121085524 33 296 11.0 20.0 0.00 0.00 0.00 88 1000.3
20220121085016 33 343 10.0 21.0 0.00 0.00 0.00 89 1000.1
20220121084524 33 341 10.0 21.0 0.00 0.00 0.00 90 999.8
20220121084016 33 312 10.0 23.0 0.00 0.00 0.00 91 999.7
20220121083521 33 348 10.0 23.0 0.00 0.00 0.00 92 999.8
20220121083017 32 298 8.0 19.0 0.00 0.00 0.00 92 999.5
20220121082526 32 293 11.0 20.0 0.00 0.00 0.00 92 999.3
20220121082017 32 266 14.0 27.0 0.00 0.00 0.00 92 999.3
20220121081519 32 286 13.0 27.0 0.00 0.00 0.00 92 999.2
20220121081017 32 317 13.0 24.0 0.00 0.00 0.00 92 999.1
20220121080522 32 331 11.0 26.0 0.00 0.00 0.00 92 999.1
20220121080017 32 293 10.0 26.0 0.00 0.00 0.00 92 998.8
20220121075522 32 317 9.0 23.0 0.00 0.00 0.00 92 998.6
20220121075015 32 307 10.0 29.0 0.00 0.00 0.00 92 998.6
20220121074526 32 276 10.0 29.0 0.00 0.00 0.00 92 998.4
20220121074014 32 317 10.0 21.0 0.00 0.00 0.00 91 998.2
20220121073523 32 344 10.0 23.0 0.00 0.00 0.00 91 998.0
20220121073015 32 312 11.0 23.0 0.00 0.00 0.00 92 998.0
20220121072522 32 281 10.0 26.0 0.00 0.00 0.00 92 998.0
20220121072015 32 290 13.0 26.0 0.00 0.00 0.00 92 998.0
20220121071518 32 292 11.0 24.0 0.00 0.00 0.00 93 997.9
20220121071014 32 298 14.0 24.0 0.00 0.00 0.00 93 997.6
20220121070516 31 323 9.0 19.0 0.00 0.00 0.00 93 997.7
20220121070013 31 292 8.0 15.0 0.00 0.00 0.00 93 997.6
20220121065514 30 290 6.0 12.0 0.00 0.00 0.00 93 997.6
20220121065014 29 262 5.0 10.0 0.00 0.00 0.00 93 997.6
20220121064515 29 259 5.0 10.0 0.00 0.00 0.00 94 997.6
20220121064013 29 265 4.0 10.0 0.00 0.00 0.00 93 997.6
20220121063522 28 269 5.0 9.0 0.00 0.00 0.00 93 997.7
20220121063015 28 268 4.0 6.0 0.00 0.00 0.00 93 997.6
20220121062515 28 259 3.0 7.0 0.00 0.00 0.00 93 997.7
20220121062013 27 259 4.0 7.0 0.00 0.00 0.00 93 997.6